When you browse on this site, cookies collect data to enhance your experience and personalize the content and advertising you see.
Visit our Privacy Policy to learn more. By continuing to use the site, you agree to this use of cookies and data.
  • In Czech Republic
  • List of Countries
  • For 7 days
  • Water Temperature
  • Satellite Maps
  • Weather Map
  • Weather Widgets
  • user-avatar
    Login

    Hourly Weather Bielce

    Today, 20 March, Wednesday

    Time Temperature Precipitation Wind Pressure Humidity
    00:00 +9°C° 0 mm 3 mps 757 mmHg 84%
    01:00 +8°C° 0 mm 3 mps 758 mmHg 84%
    02:00 +8°C° 0 mm 3 mps 758 mmHg 85%
    03:00 +8°C° 0 mm 3 mps 758 mmHg 85%
    04:00 +8°C° 0 mm 3 mps 758 mmHg 84%
    05:00 +6°C° 0 mm 4 mps 758 mmHg 83%
    06:00 +6°C° 0 mm 4 mps 758 mmHg 82%
    07:00 +6°C° 0 mm 4 mps 759 mmHg 80%
    08:00 +7°C° 0 mm 4 mps 759 mmHg 79%
    09:00 +7°C° 0 mm 4 mps 759 mmHg 74%
    10:00 +8°C° 0 mm 4 mps 760 mmHg 69%
    11:00 +9°C° 0 mm 5 mps 760 mmHg 64%
    12:00 +9°C° 0 mm 5 mps 760 mmHg 61%
    13:00 +11°C° 0 mm 4 mps 760 mmHg 57%
    14:00 +11°C° 0 mm 4 mps 761 mmHg 54%
    15:00 +11°C° 0 mm 4 mps 761 mmHg 53%
    16:00 +11°C° 0 mm 4 mps 761 mmHg 52%
    17:00 +11°C° 0 mm 4 mps 761 mmHg 51%
    18:00 +11°C° 0 mm 3 mps 761 mmHg 53%
    19:00 +10°C° 0 mm 3 mps 762 mmHg 55%
    20:00 +10°C° 0 mm 2 mps 762 mmHg 57%
    21:00 +9°C° 0 mm 3 mps 762 mmHg 58%
    22:00 +9°C° 0 mm 3 mps 763 mmHg 59%
    23:00 +8°C° 0 mm 3 mps 763 mmHg 60%

    Tomorrow, 21 March, Thursday

    Time Temperature Precipitation Wind Pressure Humidity
    00:00 +7°C° 0 mm 2 mps 763 mmHg 61%
    01:00 +7°C° 0 mm 2 mps 763 mmHg 63%
    02:00 +6°C° 0 mm 2 mps 763 mmHg 65%
    03:00 +5°C° 0 mm 2 mps 763 mmHg 65%
    04:00 +5°C° 0 mm 2 mps 763 mmHg 65%
    05:00 +6°C° 0 mm 1 mps 763 mmHg 66%
    06:00 +6°C° 0 mm 1 mps 764 mmHg 63%
    07:00 +5°C° 0 mm 2 mps 764 mmHg 61%
    08:00 +6°C° 0 mm 2 mps 764 mmHg 58%
    09:00 +7°C° 0 mm 2 mps 764 mmHg 52%
    10:00 +9°C° 0 mm 3 mps 764 mmHg 46%
    11:00 +10°C° 0 mm 4 mps 764 mmHg 40%
    12:00 +10°C° 0 mm 4 mps 763 mmHg 39%
    13:00 +10°C° 0 mm 5 mps 763 mmHg 38%
    14:00 +10°C° 0 mm 5 mps 762 mmHg 37%
    15:00 +12°C° 0 mm 5 mps 762 mmHg 38%
    16:00 +12°C° 0 mm 5 mps 762 mmHg 39%
    17:00 +12°C° 0 mm 5 mps 762 mmHg 39%
    18:00 +11°C° 0 mm 4 mps 762 mmHg 44%
    19:00 +10°C° 0 mm 3 mps 762 mmHg 49%
    20:00 +9°C° 0 mm 2 mps 762 mmHg 54%
    21:00 +9°C° 0 mm 2 mps 762 mmHg 57%
    22:00 +8°C° 0 mm 2 mps 762 mmHg 61%
    23:00 +8°C° 0 mm 2 mps 762 mmHg 64%

    Day after tomorrow, 22 March, Friday

    Time Temperature Precipitation Wind Pressure Humidity
    00:00 +8°C° 0 mm 2 mps 763 mmHg 67%
    01:00 +8°C° 0 mm 2 mps 763 mmHg 70%
    02:00 +8°C° 0 mm 2 mps 763 mmHg 73%
    03:00 +7°C° 0 mm 2 mps 763 mmHg 75%
    04:00 +7°C° 0 mm 2 mps 762 mmHg 77%
    05:00 +7°C° 0 mm 2 mps 762 mmHg 78%
    06:00 +8°C° 0 mm 3 mps 762 mmHg 78%
    07:00 +8°C° 0 mm 3 mps 762 mmHg 77%
    08:00 +7°C° 0 mm 4 mps 762 mmHg 76%
    09:00 +8°C° 0 mm 4 mps 762 mmHg 70%
    10:00 +11°C° 0 mm 4 mps 762 mmHg 64%
    11:00 +12°C° 0 mm 5 mps 762 mmHg 58%
    12:00 +13°C° 0 mm 5 mps 761 mmHg 55%
    13:00 +14°C° 0 mm 5 mps 761 mmHg 51%
    14:00 +14°C° 0 mm 5 mps 760 mmHg 48%
    15:00 +15°C° 0 mm 4 mps 760 mmHg 49%
    16:00 +15°C° 0 mm 4 mps 760 mmHg 49%
    17:00 +15°C° 0 mm 4 mps 759 mmHg 49%
    18:00 +14°C° 0 mm 4 mps 760 mmHg 54%
    19:00 +13°C° 0 mm 3 mps 760 mmHg 60%
    20:00 +13°C° 0 mm 2 mps 760 mmHg 65%
    21:00 +13°C° 0 mm 2 mps 760 mmHg 68%
    22:00 +12°C° 0 mm 2 mps 760 mmHg 71%
    23:00 +12°C° 0 mm 2 mps 761 mmHg 73%

    23 March, Saturday

    Time Temperature Precipitation Wind Pressure Humidity
    00:00 +12°C° 0 mm 2 mps 760 mmHg 75%
    01:00 +12°C° 0 mm 2 mps 760 mmHg 76%
    02:00 +12°C° 0 mm 2 mps 760 mmHg 77%
    03:00 +10°C° 0 mm 2 mps 760 mmHg 78%
    04:00 +10°C° 0 mm 2 mps 760 mmHg 80%
    05:00 +10°C° 0 mm 2 mps 760 mmHg 81%
    06:00 +10°C° 0 mm 2 mps 760 mmHg 81%
    07:00 +10°C° 0 mm 2 mps 760 mmHg 80%
    08:00 +10°C° 0 mm 2 mps 760 mmHg 80%
    09:00 +12°C° 0 mm 2 mps 760 mmHg 77%
    10:00 +12°C° 0 mm 2 mps 760 mmHg 75%
    11:00 +13°C° 0 mm 2 mps 760 mmHg 72%
    12:00 +14°C° 0 mm 2 mps 759 mmHg 66%
    13:00 +15°C° 0 mm 2 mps 759 mmHg 59%
    14:00 +16°C° 0 mm 2 mps 758 mmHg 53%
    15:00 +16°C° 0 mm 2 mps 758 mmHg 53%
    16:00 +17°C° 0 mm 2 mps 758 mmHg 52%
    17:00 +18°C° 0 mm 1 mps 757 mmHg 52%
    18:00 +16°C° 0 mm 1 mps 757 mmHg 57%
    19:00 +15°C° 0 mm 1 mps 757 mmHg 61%
    20:00 +14°C° 0 mm 1 mps 757 mmHg 66%
    21:00 +13°C° 0 mm 1 mps 757 mmHg 67%
    22:00 +13°C° 0 mm 1 mps 757 mmHg 69%
    23:00 +12°C° 0 mm 1 mps 757 mmHg 71%

    24 March, Sunday

    Time Temperature Precipitation Wind Pressure Humidity
    00:00 +12°C° 0 mm 2 mps 757 mmHg 72%
    01:00 +10°C° 0 mm 2 mps 757 mmHg 74%
    02:00 +10°C° 0 mm 2 mps 757 mmHg 75%
    03:00 +10°C° 0 mm 2 mps 756 mmHg 76%
    04:00 +9°C° 0 mm 2 mps 756 mmHg 77%
    05:00 +9°C° 0 mm 2 mps 756 mmHg 78%
    06:00 +10°C° 0 mm 2 mps 756 mmHg 75%
    07:00 +12°C° 0 mm 2 mps 756 mmHg 72%
    08:00 +12°C° 0 mm 2 mps 756 mmHg 69%
    09:00 +14°C° 0 mm 2 mps 756 mmHg 63%
    10:00 +16°C° 0 mm 3 mps 756 mmHg 56%
    11:00 +17°C° 0 mm 3 mps 755 mmHg 50%
    12:00 +18°C° 0 mm 3 mps 755 mmHg 47%
    13:00 +19°C° 0 mm 3 mps 755 mmHg 44%
    14:00 +19°C° 0 mm 3 mps 754 mmHg 41%
    15:00 +19°C° 0.1 mm 4 mps 754 mmHg 45%
    16:00 +18°C° 0.1 mm 4 mps 754 mmHg 49%
    17:00 +18°C° 0.1 mm 4 mps 753 mmHg 52%
    18:00 +15°C° 0 mm 4 mps 753 mmHg 59%
    19:00 +14°C° 0 mm 3 mps 754 mmHg 67%
    20:00 +14°C° 0 mm 2 mps 754 mmHg 74%
    21:00 +13°C° 0.1 mm 3 mps 754 mmHg 72%
    22:00 +12°C° 0.1 mm 3 mps 754 mmHg 71%
    23:00 +12°C° 0.1 mm 3 mps 754 mmHg 69%

    25 March, Monday

    Time Temperature Precipitation Wind Pressure Humidity
    00:00 +12°C° 0.1 mm 3 mps 753 mmHg 68%
    01:00 +11°C° 0.1 mm 3 mps 753 mmHg 67%
    02:00 +12°C° 0.1 mm 2 mps 753 mmHg 66%
    03:00 +10°C° 0 mm 2 mps 752 mmHg 69%
    04:00 +11°C° 0 mm 1 mps 752 mmHg 72%
    05:00 +10°C° 0 mm 1 mps 751 mmHg 74%
    06:00 +10°C° 0 mm 1 mps 751 mmHg 73%
    07:00 +10°C° 0 mm 1 mps 751 mmHg 72%
    08:00 +10°C° 0 mm 0 mps 751 mmHg 70%
    09:00 +12°C° 0 mm 1 mps 750 mmHg 68%
    10:00 +12°C° 0 mm 1 mps 750 mmHg 65%
    11:00 +13°C° 0 mm 2 mps 749 mmHg 63%
    12:00 +14°C° 0 mm 2 mps 748 mmHg 62%
    13:00 +14°C° 0 mm 2 mps 748 mmHg 61%
    14:00 +14°C° 0 mm 3 mps 747 mmHg 60%
    15:00 +14°C° 0.1 mm 3 mps 746 mmHg 59%
    16:00 +13°C° 0.1 mm 3 mps 746 mmHg 59%
    17:00 +13°C° 0.1 mm 3 mps 745 mmHg 58%
    18:00 +14°C° 0.1 mm 2 mps 745 mmHg 60%
    19:00 +13°C° 0.1 mm 2 mps 745 mmHg 63%
    20:00 +12°C° 0.1 mm 1 mps 746 mmHg 65%
    21:00 +12°C° 0 mm 2 mps 746 mmHg 61%
    22:00 +10°C° 0 mm 4 mps 746 mmHg 58%
    23:00 +8°C° 0 mm 5 mps 746 mmHg 54%
    Show more